Temperature
21 21 21 20 20 20 20 20 20 20 19 19 19 19 19 19 19 19 19 18 18 18 18 18 18 18 18 18 18 18 18 18 18 18 18 19 19 18 18 18 18 18 18
21 21 21 20 20 20 20 20 20 20 19 19 19 19 19 19 19 19 19 19 18 18 18 18 18 18 18 18 18 18 18 18 18 18 18 18 18 18 18 18 18 18 18
21 21 21 21 21 20 20 20 20 20 20 19 19 19 19 19 19 19 19 19 19 18 18 18 18 18 18 18 18 18 18 18 18 18 17 18 18 18 18 18 18 18 18
22 22 22 21 21 21 21 20 20 20 20 20 19 19 19 19 19 19 19 19 19 18 18 18 18 18 18 18 18 18 18 18 18 18 18 17 17 17 18 18 18 18 18
22 22 22 22 22 21 21 21 20 20 20 20 19 19 19 19 19 19 19 19 19 19 18 18 18 18 18 18 18 18 18 18 18 17 17 17 17 17 17 18 18 18 18
22 22 22 22 22 21 21 21 20 20 20 20 20 19 19 19 19 19 19 19 19 19 19 18 18 18 18 18 18 18 18 18 18 17 17 17 17 17 17 17 17 18 18
22 22 22 22 22 21 21 21 21 20 20 20 20 19 19 19 19 19 19 19 19 19 19 18 18 18 18 18 18 18 18 18 17 17 17 17 17 17 17 17 17 17 18
22 22 22 22 22 22 21 21 21 21 20 20 20 20 19 19 19 19 19 19 19 19 19 18 18 18 18 18 18 18 18 18 18 17 17 17 17 17 17 17 17 17 17
22 22 22 22 22 22 22 21 21 21 21 20 20 20 19 19 19 19 19 19 19 19 18 18 18 18 18 18 18 18 18 18 17 17 17 17 17 17 17 17 17 17 17
22 22 22 22 22 22 22 21 21 21 21 20 20 20 20 19 19 19 19 19 19 18 18 18 18 18 18 18 18 18 17 17 17 17 17 17 17 17 17 17 17 17 17
22 22 22 22 22 22 22 21 21 21 21 20 20 20 20 19 19 19 19 18 18 18 18 18 18 18 18 18 18 18 17 17 17 17 17 17 17 17 17 17 17 16 16
22 22 22 22 22 21 21 21 21 21 20 20 20 20 19 19 19 19 18 18 18 18 18 18 18 18 18 18 18 17 17 17 17 17 17 17 17 17 17 16 16 16 16
21 21 21 21 21 21 21 21 21 21 20 20 19 19 19 19 19 19 18 18 18 18 18 18 18 18 18 18 17 17 17 17 17 17 17 17 17 17 16 16 16 16 16
21 21 21 21 21 21 21 21 21 20 20 20 19 19 19 19 19 18 18 18 18 18 18 18 17 17 17 17 17 17 17 17 17 17 17 16 16 16 16 16 16 16 16
20 21 21 21 21 21 21 21 21 20 20 19 19 19 19 18 18 18 18 18 17 17 17 17 17 17 17 17 17 17 17 17 17 17 16 16 16 16 16 16 16 16 16
20 20 21 21 21 21 21 20 20 20 19 19 19 19 18 18 18 18 18 17 17 17 17 17 17 17 17 17 17 17 16 16 16 16 16 16 16 16 16 16 16 16 16
20 20 20 20 20 20 20 20 19 19 19 18 18 18 18 18 18 18 17 17 17 17 16 16 16 16 16 16 16 16 16 16 16 16 16 16 16 16 16 15 15 15 15
20 20 20 20 20 20 20 19 19 19 18 18 18 18 18 18 17 17 17 17 17 16 16 16 16 16 16 16 16 16 16 16 16 16 16 16 16 16 15 15 15 15 15
19 19 20 20 19 19 19 19 18 18 18 18 18 17 17 17 17 17 17 17 16 16 16 16 16 16 16 16 16 16 15 15 16 16 15 15 15 15 15 15 15 15 15
19 19 19 19 19 18 18 18 18 17 17 17 17 17 17 16 16 16 16 16 16 16 16 16 15 15 15 15 15 15 15 15 15 15 15 15 15 15 15 14 14 14 15
18 18 18 18 18 18 17 17 17 17 17 16 16 16 16 16 16 16 16 15 15 15 15 15 15 15 15 15 15 15 14 14 14 15 15 15 15 14 14 14 14 14 14
18 18 18 17 17 17 17 17 17 16 16 16 16 16 16 15 15 15 15 15 15 15 15 15 15 14 14 14 14 14 14 14 14 14 14 14 14 14 14 14 14 14 14
17 17 17 16 16 16 16 16 16 15 15 15 15 15 15 15 15 15 15 14 14 14 14 14 14 14 14 14 14 14 14 13 13 13 13 13 13 13 13 13 13 13 13
16 16 16 16 16 15 15 15 14 14 14 14 14 14 14 14 14 14 14 14 14 13 13 13 13 13 13 13 13 13 13 13 13 13 13 13 13 13 13 13 13 13 13
16 16 16 15 15 15 14 14 14 14 14 14 14 13 13 13 13 13 13 13 13 13 13 13 13 13 13 13 13 13 13 13 12 12 12 12 12 12 12 12 12 12 12
15 15 15 15 14 14 14 14 13 13 13 13 13 13 13 13 13 13 13 13 12 12 12 12 12 12 12 12 12 12 12 12 12 12 12 12 12 12 12 12 12 12 12
Wind_Speed
7 7 7 8 8 7 7 7 7 6 5 3 3 2 2 2 2 3 4 5 5 5 4 2 2 1 1 1 1 1 0 1 0 1 3 3 2 2 2 2 3 4 6
6 7 8 8 9 9 8 8 7 7 6 5 3 3 2 2 2 1 2 4 5 5 4 3 2 2 1 1 1 1 0 0 0 1 1 3 4 2 2 2 2 3 3
11 10 9 9 9 9 10 9 8 7 7 5 3 2 2 1 0 1 1 3 4 4 4 4 3 2 2 2 2 2 1 1 1 1 1 0 2 3 2 2 2 2 2
10 10 11 11 11 11 9 8 8 7 6 6 5 5 4 4 4 2 2 2 3 3 4 4 4 3 2 3 3 2 2 2 1 1 1 2 2 1 3 3 2 3 3
11 12 12 12 11 9 8 7 7 6 6 6 7 6 4 4 2 2 2 2 2 2 3 4 3 3 3 4 3 2 3 2 2 2 1 1 1 2 2 3 3 3 3
10 10 10 8 8 8 7 7 7 6 6 6 6 6 6 4 3 3 3 3 2 2 3 3 3 4 4 4 4 4 4 3 3 2 2 2 2 2 2 3 3 3 3
8 8 9 9 9 9 9 8 8 8 7 7 7 7 6 6 6 5 4 3 3 3 4 4 4 4 4 5 4 4 4 4 4 3 3 3 3 2 2 2 3 3 3
7 9 9 10 9 10 9 8 9 8 7 7 7 6 6 5 4 5 4 4 4 4 4 4 4 4 4 4 4 3 4 3 4 4 3 3 3 3 3 3 2 2 2
6 7 7 8 8 9 9 9 9 7 7 7 6 6 6 6 5 5 4 4 4 4 4 4 4 4 4 4 3 3 4 3 4 4 4 3 3 3 4 3 3 3 2
4 5 6 6 7 7 7 7 7 8 8 7 7 7 6 6 6 4 5 5 5 4 4 4 4 4 4 4 4 4 4 4 4 4 4 4 3 3 3 4 4 4 4
5 5 5 5 5 5 6 7 7 6 6 7 6 6 5 6 5 5 6 5 5 5 5 5 4 4 4 4 4 5 5 5 5 5 5 5 4 3 3 3 3 4 4
4 4 4 4 5 6 5 6 6 6 5 5 5 6 5 4 4 5 5 5 5 5 5 4 4 4 4 4 4 5 5 6 6 6 5 6 4 5 4 3 4 4 5
3 3 4 4 4 5 5 5 5 5 4 4 4 4 4 4 4 5 4 4 5 5 5 4 5 5 5 4 5 5 5 6 7 6 6 6 5 5 4 4 4 4 4
3 3 2 2 3 4 4 5 4 4 4 4 3 3 4 4 4 4 4 4 4 4 5 5 5 5 5 4 5 4 5 6 6 6 6 6 6 6 6 6 5 4 4
2 2 2 2 2 2 2 2 2 3 3 3 3 3 3 3 3 3 3 3 3 4 4 4 4 4 4 4 4 4 5 5 5 5 6 6 7 8 7 6 5 5 4
2 2 2 2 2 3 3 3 2 1 2 2 2 2 2 2 2 3 3 2 3 3 2 3 3 4 4 4 5 4 3 4 4 5 5 6 6 8 8 9 8 6 6
3 3 3 3 3 3 3 3 3 2 1 1 2 2 2 2 3 3 2 3 3 3 3 3 3 4 5 5 6 5 4 4 4 5 5 5 5 6 5 6 7 7 9
2 1 1 1 1 1 1 2 2 2 2 2 3 2 2 3 2 2 3 3 3 3 4 4 4 5 6 5 5 5 4 4 5 5 5 5 5 5 5 4 4 5 5
2 1 1 2 1 1 1 2 1 1 1 2 2 2 2 3 3 3 4 3 3 4 4 4 5 6 6 5 5 4 3 4 5 4 4 4 5 5 5 4 5 5 4
1 1 1 2 2 1 2 3 1 0 1 2 3 3 3 3 3 4 3 2 3 4 4 5 5 5 6 5 5 5 3 4 4 4 4 4 5 5 4 5 5 6 5
2 2 3 2 1 1 2 2 1 1 2 2 2 2 2 2 3 3 2 2 3 4 4 5 5 5 5 5 5 5 4 5 5 5 4 4 6 6 6 6 6 7 5
3 3 3 2 2 2 2 1 1 2 2 1 2 2 2 2 2 2 2 3 3 3 4 4 4 4 4 4 5 6 6 5 5 5 5 5 6 7 6 5 6 6 4
2 2 2 2 2 2 1 0 3 2 2 1 2 3 3 2 2 2 3 2 2 3 3 3 4 4 3 3 5 6 6 6 5 5 6 6 6 5 5 5 5 4 3
1 2 3 2 1 2 1 1 2 2 2 2 2 3 3 3 3 2 2 2 3 3 3 3 4 4 3 3 3 3 4 4 4 4 4 4 4 4 3 2 3 3 3
1 1 2 1 1 1 2 2 2 1 1 2 3 3 3 3 3 3 2 3 3 3 4 4 4 4 5 5 5 4 4 3 3 2 1 1 1 1 1 1 1 2 2
1 1 1 1 1 1 2 3 3 1 1 2 3 3 3 3 3 3 4 3 3 4 4 5 5 5 6 7 6 5 6 5 4 2 2 2 3 3 3 3 2 2 3
Wind_Direction
207 193 188 183 176 179 185 187 184 180 165 160 168 177 214 227 232 233 237 234 229 218 206 223 229 204 206 244 245 217 293 328 343 6 335 321 298 275 256 260 253 248 246
195 195 191 187 183 184 189 191 191 184 182 182 173 177 178 200 218 242 249 237 225 220 220 209 216 211 202 258 254 191 155 314 81 101 21 339 334 330 303 285 264 269 260
198 196 195 196 189 189 192 195 193 191 189 179 152 135 102 61 292 242 243 241 227 227 226 212 201 205 204 232 242 204 173 248 281 158 149 155 279 308 312 296 298 299 278
197 194 195 194 197 198 192 190 189 189 188 175 171 175 185 203 218 219 232 249 231 224 221 214 203 202 211 230 240 211 197 196 236 253 214 209 198 235 310 312 305 304 291
195 196 199 197 198 193 188 186 183 189 186 181 182 184 199 210 215 213 227 245 249 240 232 218 201 205 218 230 233 215 198 201 203 210 204 207 209 213 224 290 313 315 292
193 194 193 186 188 184 183 179 182 194 188 183 184 190 199 201 200 216 225 237 242 242 235 217 208 213 224 231 231 221 203 207 205 203 194 193 201 209 206 244 277 292 292
182 182 177 181 185 183 185 182 185 198 194 191 198 201 204 202 208 217 221 226 236 242 240 225 212 218 228 232 229 220 213 208 210 214 212 215 220 207 199 217 253 270 287
182 185 184 184 187 186 185 186 192 203 200 199 206 206 204 206 218 220 219 220 228 237 237 227 223 226 231 238 227 226 222 209 213 226 216 219 227 212 209 207 209 266 297
183 183 178 177 182 185 188 189 191 202 209 209 206 211 212 213 218 220 221 228 233 239 236 230 231 230 231 232 220 229 234 217 220 228 227 225 229 219 223 216 201 204 259
160 169 174 179 181 187 188 186 186 198 210 213 212 220 217 221 221 217 228 232 232 233 232 237 238 236 233 228 219 227 232 223 233 231 233 241 238 227 221 218 213 209 212
168 170 177 177 171 173 180 189 194 199 201 209 213 220 219 219 218 221 231 233 234 228 227 231 235 237 236 228 220 230 231 229 240 239 233 245 245 242 235 224 216 215 210
155 155 157 152 156 165 172 186 192 197 204 202 202 212 215 210 216 229 235 230 230 230 226 224 229 234 235 231 229 237 235 232 241 243 235 243 243 238 235 224 225 223 217
124 126 134 152 170 177 180 184 188 196 199 192 199 209 214 213 224 237 242 237 235 235 231 224 231 240 243 239 236 236 239 240 243 243 237 240 236 245 239 229 232 231 226
119 119 143 157 170 179 180 181 186 187 181 177 187 207 222 225 232 240 244 242 241 240 236 233 235 238 243 244 240 234 239 245 250 249 243 240 235 241 244 240 235 227 218
119 147 168 173 164 163 168 164 175 174 169 174 195 224 239 240 237 239 246 244 241 244 236 229 241 245 243 249 242 238 243 248 257 257 249 244 238 234 233 237 229 217 214
182 187 168 172 178 182 184 173 185 181 153 173 212 234 235 237 242 247 249 243 240 238 231 233 239 244 249 256 246 235 249 253 256 262 261 254 250 249 239 233 224 210 212
202 201 194 196 206 208 193 188 191 168 169 199 226 231 226 241 249 254 255 248 245 236 239 244 242 249 255 255 255 241 230 242 252 257 264 267 261 242 241 242 238 232 226
203 234 231 216 219 197 178 170 166 158 171 226 245 247 230 239 248 246 251 261 256 243 245 248 249 255 264 260 256 247 228 237 247 248 251 258 268 256 235 234 236 236 233
192 212 213 201 181 155 142 135 138 143 161 243 255 257 246 246 251 246 249 251 252 250 246 254 255 257 267 261 250 230 232 249 258 259 261 262 265 259 231 221 229 238 244
96 92 72 62 73 40 89 106 106 109 247 257 261 260 251 247 257 257 255 253 253 255 256 257 254 253 260 261 247 226 227 248 265 275 273 264 265 264 226 221 224 234 240
74 86 88 79 48 65 100 100 74 275 271 278 284 286 270 258 261 264 262 263 267 271 266 264 262 256 258 262 251 232 225 238 254 265 272 275 269 260 244 228 228 231 225
59 74 83 58 24 42 93 79 303 288 299 291 289 296 297 288 285 269 272 268 262 273 277 274 281 274 266 261 261 247 237 237 243 256 264 270 268 255 245 235 233 222 203
102 91 98 63 27 28 78 47 304 320 329 333 318 317 323 319 306 286 285 292 283 273 279 278 278 283 279 272 265 261 254 245 243 257 262 265 263 249 241 233 216 199 191
129 119 108 86 18 351 360 287 301 330 2 342 323 323 324 323 324 311 288 277 277 280 281 280 281 284 279 275 274 269 265 260 258 269 272 263 250 243 236 219 206 203 200
141 134 138 149 280 335 342 319 312 338 348 326 318 319 315 309 316 316 299 280 271 264 266 272 274 279 281 274 259 253 259 255 252 244 262 276 255 246 248 248 230 216 204
152 160 174 213 284 328 329 316 309 316 339 319 311 303 299 303 302 300 310 304 274 295 282 270 273 275 270 281 281 268 264 256 228 203 238 242 241 243 238 236 240 233 225
Height
1529 1532 1534 1537 1539 1542 1544 1546 1548 1550 1552 1554 1555 1557 1558 1559 1560 1561 1562 1563 1563 1564 1564 1565 1565 1565 1566 1566 1565 1565 1565 1565 1564 1564 1563 1562 1562 1561 1561 1561 1561 1561 1562
1527 1530 1532 1535 1537 1539 1542 1544 1547 1549 1551 1552 1554 1556 1557 1558 1559 1560 1561 1561 1562 1563 1563 1564 1564 1565 1565 1565 1565 1565 1564 1564 1564 1563 1562 1561 1562 1560 1560 1560 1560 1560 1560
1524 1527 1530 1532 1535 1537 1539 1542 1545 1547 1549 1551 1553 1554 1556 1557 1558 1558 1559 1560 1561 1562 1562 1563 1563 1563 1563 1563 1563 1563 1563 1563 1562 1562 1562 1561 1560 1560 1559 1559 1559 1559 1558
1521 1523 1526 1529 1532 1534 1538 1541 1543 1545 1547 1549 1551 1552 1553 1554 1556 1557 1558 1559 1559 1560 1561 1561 1562 1562 1562 1562 1562 1562 1561 1561 1561 1561 1561 1561 1560 1560 1558 1558 1558 1557 1557
1517 1519 1522 1525 1529 1533 1536 1539 1541 1543 1546 1547 1549 1550 1552 1553 1554 1555 1556 1557 1558 1558 1559 1559 1559 1559 1560 1560 1560 1560 1560 1560 1559 1559 1559 1559 1558 1558 1558 1557 1556 1556 1555
1513 1516 1519 1523 1527 1530 1533 1536 1538 1541 1543 1545 1547 1548 1549 1551 1552 1553 1553 1554 1555 1556 1556 1557 1557 1557 1557 1557 1557 1557 1558 1558 1557 1557 1557 1557 1557 1556 1556 1555 1554 1553 1553
1510 1513 1516 1520 1523 1527 1530 1533 1535 1538 1540 1542 1544 1546 1547 1548 1549 1550 1551 1552 1552 1553 1554 1554 1555 1555 1555 1555 1555 1555 1555 1555 1555 1555 1555 1555 1555 1555 1554 1553 1552 1551 1551
1507 1510 1514 1517 1521 1524 1528 1530 1533 1535 1537 1539 1541 1543 1544 1546 1547 1548 1548 1549 1549 1550 1551 1551 1551 1552 1552 1552 1552 1552 1552 1552 1552 1552 1552 1553 1553 1552 1552 1551 1551 1549 1548
1506 1509 1512 1515 1519 1522 1525 1527 1530 1532 1534 1536 1538 1540 1541 1543 1544 1545 1545 1546 1546 1547 1547 1548 1548 1548 1549 1549 1549 1549 1549 1549 1549 1549 1550 1550 1550 1550 1549 1549 1548 1548 1546
1505 1508 1511 1514 1517 1520 1523 1525 1527 1529 1531 1534 1535 1537 1538 1540 1540 1541 1541 1542 1543 1543 1544 1544 1545 1545 1545 1546 1546 1546 1546 1546 1546 1546 1546 1546 1546 1546 1546 1545 1545 1545 1544
1504 1506 1509 1512 1515 1518 1521 1523 1525 1527 1529 1531 1532 1534 1535 1536 1537 1537 1538 1538 1539 1539 1540 1540 1541 1541 1541 1542 1542 1542 1542 1542 1542 1542 1542 1542 1542 1542 1542 1542 1542 1541 1541
1504 1506 1509 1512 1515 1517 1519 1521 1523 1524 1526 1528 1529 1531 1532 1533 1533 1534 1534 1534 1535 1535 1536 1536 1536 1537 1537 1537 1538 1538 1538 1538 1538 1538 1538 1538 1538 1538 1538 1538 1537 1537 1537
1504 1506 1509 1510 1513 1515 1517 1519 1521 1522 1524 1525 1527 1528 1529 1529 1529 1530 1530 1531 1531 1531 1531 1531 1532 1532 1533 1533 1533 1533 1533 1533 1533 1533 1533 1533 1533 1533 1533 1533 1533 1533 1533
1505 1506 1508 1510 1512 1514 1516 1517 1519 1521 1522 1523 1524 1525 1525 1526 1526 1526 1527 1527 1527 1527 1527 1527 1527 1527 1528 1528 1528 1528 1529 1528 1528 1528 1528 1528 1528 1528 1528 1529 1529 1529 1529
1505 1507 1508 1509 1511 1513 1515 1516 1518 1519 1520 1521 1522 1522 1523 1523 1523 1523 1523 1523 1523 1523 1523 1523 1523 1523 1524 1524 1524 1524 1524 1523 1523 1523 1523 1523 1523 1523 1523 1524 1523 1524 1524
1505 1506 1507 1509 1510 1511 1513 1514 1516 1517 1518 1519 1520 1521 1520 1520 1520 1520 1519 1519 1519 1519 1519 1518 1519 1519 1519 1519 1519 1519 1519 1519 1519 1518 1518 1518 1518 1518 1518 1518 1518 1519 1519
1504 1505 1506 1508 1509 1510 1511 1513 1514 1516 1517 1518 1518 1518 1518 1518 1517 1517 1516 1515 1515 1515 1515 1515 1515 1515 1515 1515 1515 1515 1515 1515 1514 1514 1513 1513 1513 1513 1513 1513 1513 1514 1514
1503 1505 1506 1507 1508 1510 1511 1512 1513 1513 1514 1515 1515 1515 1515 1515 1515 1514 1513 1512 1512 1511 1511 1511 1511 1511 1511 1511 1510 1510 1510 1510 1509 1509 1509 1508 1508 1508 1508 1508 1508 1509 1509
1503 1504 1505 1506 1507 1508 1509 1510 1510 1511 1512 1512 1512 1512 1512 1512 1511 1510 1510 1509 1508 1508 1508 1507 1507 1507 1506 1506 1506 1505 1505 1505 1504 1504 1504 1503 1503 1503 1503 1503 1503 1503 1504
1504 1504 1505 1505 1506 1507 1507 1508 1508 1509 1509 1510 1510 1510 1510 1509 1508 1507 1507 1506 1505 1504 1504 1503 1503 1502 1501 1501 1501 1501 1500 1500 1499 1499 1499 1499 1498 1498 1498 1498 1498 1498 1499
1503 1504 1504 1505 1505 1506 1506 1506 1506 1506 1507 1508 1508 1507 1507 1505 1505 1504 1503 1502 1501 1500 1499 1499 1498 1497 1497 1497 1497 1496 1496 1495 1495 1494 1494 1494 1494 1494 1493 1493 1494 1494 1494
1502 1503 1503 1503 1504 1504 1504 1504 1503 1504 1505 1505 1505 1504 1503 1502 1501 1500 1499 1499 1497 1496 1495 1494 1493 1493 1493 1492 1492 1492 1491 1491 1490 1489 1489 1489 1489 1488 1489 1488 1489 1489 1489
1501 1502 1502 1502 1502 1502 1502 1502 1502 1502 1502 1501 1501 1500 1499 1498 1498 1496 1495 1495 1493 1492 1491 1490 1489 1488 1488 1488 1488 1487 1486 1486 1485 1484 1483 1483 1483 1483 1483 1483 1484 1484 1484
1500 1501 1501 1501 1501 1501 1500 1500 1499 1499 1498 1498 1497 1497 1496 1495 1494 1493 1492 1491 1490 1489 1487 1486 1485 1484 1484 1483 1482 1482 1481 1481 1480 1479 1478 1478 1478 1478 1479 1479 1479 1479 1479
1499 1499 1499 1498 1499 1499 1498 1497 1497 1496 1494 1494 1494 1493 1492 1491 1490 1490 1489 1488 1487 1486 1484 1482 1481 1480 1479 1478 1478 1477 1476 1475 1475 1474 1474 1473 1473 1473 1474 1474 1474 1475 1475
1497 1497 1496 1496 1496 1495 1495 1494 1494 1493 1492 1491 1491 1490 1489 1488 1487 1486 1485 1484 1483 1481 1480 1478 1478 1476 1475 1474 1473 1472 1472 1471 1471 1470 1469 1469 1469 1469 1469 1469 1470 1470 1470